AirNav   Air Wisconsin Up To $57,000 Bonus
 
 1630 users online  

8MO0 Barnes Jewish St Peters Hospital Heliport
St Peters, Missouri, USA

GOING TO ST PETERS?


FAA INFORMATION EFFECTIVE 25 MARCH 2021

Location

FAA Identifier: 8MO0
Lat/Long: 38-47-38.2100N 090-34-51.5200W
38-47.636833N 090-34.858667W
38.7939472,-90.5809778
(estimated)
Elevation: 513 ft. / 156 m (estimated)
Variation: 02E (1985)
From city: 1 mile E of ST PETERS, MO
Time zone: UTC -5 (UTC -6 during Standard Time)
Zip code: 63376

Heliport Operations

Heliport use: Private use, MEDICAL USE.
Activation date: 08/1991
Control tower: no
ARTCC: KANSAS CITY CENTER
FSS: SAINT LOUIS FLIGHT SERVICE STATION
Attendance: CONTINUOUS
Wind indicator: yes
Segmented circle: no
Lights: FOR FLOOD LGTS CALL 636-916-9000.

Heliport Communications

WX ASOS at SUS (9 nm SW): 134.8 (314-890-7255)
WX ASOS at STL (10 nm E): 125.025 (314-890-4790)
WX ASOS at SET (11 nm NE): 118.075 (636-250-4590)

Nearby radio navigation aids

VOR radial/distance  VOR name  Freq  Var
STLr228/6.1ST LOUIS VORTAC117.4001E
FTZr067/19.2FORISTELL VORTAC110.8005E
TOYr272/31.2TROY VORTAC116.0004E

 
NDB name  Hdg/Dist  Freq  Var  ID
EAVES348/7.222701WFZ ..-. --..
SNOOP044/12.732601WSU ... ..-
CIVIC MEMORIAL257/25.226301WCVM -.-. ...- --

Heliport Services

Runway Information

Helipad H1

Dimensions: 50 x 50 ft. / 15 x 15 m
Surface: concrete
Runway edge lights: FLD
Latitude: 38-47.636833N
Longitude: 090-34.858667W
Elevation: 513.0 ft.
Traffic pattern: leftleft

Heliport Ownership and Management from official FAA records

Ownership: Privately-owned
Owner: BARNES-JEWISH ST PETERS HOSPITAL
10 HOSPITAL DR
ST PETERS, MO 63376
Phone 636-916-9000
Manager: TERRY BANISTER
10 HOSPITAL DR
ST PETERS, MO 63376
Phone 636-916-9424
TERRY BANISTER 636-916-9242.

Additional Remarks

FOR CD CTC ST LOUIS APCH AT 314-890-1018.

Instrument Procedures

There are no published instrument procedures at 8MO0.

Some nearby airports with instrument procedures:

1H0 - Creve Coeur Airport (5 nm SE)
KSUS - Spirit of St Louis Airport (9 nm SW)
KSTL - St Louis Lambert International Airport (10 nm E)
KSET - St Charles County Smartt Airport (11 nm NE)
KFYG - Washington Regional Airport (23 nm SW)
 
Loc | Ops | Rwys | IFR | FBO | Links
Com | Nav | Svcs | Stats | Notes
Area around 8MO0 (Barnes Jewish St Peters Hospital Heliport)
 
Road maps at: MapQuest Bing Google
 
Aerial photo
No photo
 
Sectional chart

 
Airport distance calculator
Flying to Barnes Jewish St Peters Hospital Heliport? Find the distance to fly.

From to 8MO0

Sunrise and sunset
Times for 21-Apr-2021
 Local
(UTC-5)
 Zulu
(UTC)
Morning civil twilight05:5110:51
Sunrise06:1911:19
Sunset19:4400:44
Evening civil twilight20:1201:12

Current date and time
Zulu (UTC)  21-Apr-2021 14:29:01
Local (UTC-5)  21-Apr-2021 09:29:01
 
METAR
KSUS 
9nm S 
211354Z 26005KT 10SM CLR 04/M02 A3024 RMK AO2 SLP246 T00441017
KSTL 
10nm E 
211351Z 26008KT 10SM FEW100 06/M02 A3024 RMK AO2 SLP246 T00561022
KSET 
11nm NE 
211354Z AUTO 27006KT 10SM CLR 04/M03 A3023 RMK AO2 SLP239 T00441033
TAF
KSUS 
9nm S 
211120Z 2112/2212 26005KT P6SM FEW250 FM211900 28008KT P6SM VCSH BKN070 FM212300 29008KT P6SM SCT090
KSTL 
10nm E 
211120Z 2112/2218 28005KT P6SM FEW250 FM211900 28009KT P6SM VCSH BKN060 FM220000 29007KT P6SM SCT090
NOTAMs
Click for the latest NOTAMs
NOTAMs are issued by the DoD/FAA and will open in a separate window not controlled by AirNav.

 

 
 

Would you like to see your business listed on this page?

 If your business provides an interesting product or service to pilots, flight crews, aircraft, or users of the Barnes Jewish St Peters Hospital Heliport, you should consider listing it here.  To start the listing process, click on the button below
 
Add a business
 

Other Pages about Barnes Jewish St Peters Hospital Heliport

Update a link
 
Copyright © AirNav, LLC. All rights reserved. Privacy Policy  Contact